Time,TemperatureF,DewpointF,PressureIn,WindDirection,WindDirectionDegrees,WindSpeedMPH,WindSpeedGustMPH,Humidity,HourlyPrecipIn,Conditions,Clouds,dailyrainin,SoftwareType,DateUTC
2013-02-14 00:02:00,70.0,69.0,29.95,SSW,202,5.0,7.0,96,-99.99,,,-99.99,,2013-02-14 05:02:00,
2013-02-14 00:11:00,70.0,69.0,29.95,SSW,213,5.0,7.0,96,-99.99,,,-99.99,,2013-02-14 05:11:00,
2013-02-14 00:22:00,70.0,69.0,29.95,SSW,213,5.0,7.0,96,-99.99,,,-99.99,,2013-02-14 05:22:00,
2013-02-14 00:32:00,70.0,69.0,29.95,SSW,210,5.0,7.0,96,-99.99,,,-99.99,,2013-02-14 05:32:00,
2013-02-14 00:42:00,70.0,70.0,29.95,SSW,212,6.0,9.0,97,-99.99,,,-99.99,,2013-02-14 05:42:00,
2013-02-14 00:52:00,70.0,70.0,29.95,SSW,206,5.0,7.0,97,-99.99,,,-99.99,,2013-02-14 05:52:00,
2013-02-14 01:02:00,70.0,70.0,29.95,SSW,206,5.0,7.0,97,-99.99,,,-99.99,,2013-02-14 06:02:00,
2013-02-14 01:11:00,70.0,69.0,29.94,SSW,201,5.0,7.0,97,-99.99,,,-99.99,,2013-02-14 06:11:00,
2013-02-14 01:21:00,70.0,69.0,29.94,SSW,201,5.0,7.0,97,-99.99,,,-99.99,,2013-02-14 06:21:00,
2013-02-14 01:32:00,70.0,69.0,29.94,SSW,203,4.0,6.0,97,-99.99,,,-99.99,,2013-02-14 06:32:00,
2013-02-14 01:42:00,70.0,69.0,29.94,SSW,198,2.0,4.0,97,-99.99,,,-99.99,,2013-02-14 06:42:00,
2013-02-14 01:52:00,70.0,69.0,29.94,SSW,194,3.0,4.0,97,-99.99,,,-99.99,,2013-02-14 06:52:00,
2013-02-14 02:01:00,70.0,69.0,29.94,SSW,194,3.0,4.0,97,-99.99,,,-99.99,,2013-02-14 07:01:00,
2013-02-14 02:11:00,69.0,68.0,29.93,SSW,193,5.0,6.0,98,-99.99,,,-99.99,,2013-02-14 07:11:00,
2013-02-14 02:21:00,69.0,68.0,29.93,SSW,193,5.0,6.0,98,-99.99,,,-99.99,,2013-02-14 07:21:00,
2013-02-14 02:32:00,69.0,69.0,29.93,SSW,202,5.0,7.0,98,-99.99,,,-99.99,,2013-02-14 07:32:00,
2013-02-14 02:42:00,69.0,69.0,29.92,SSW,192,4.0,6.0,98,-99.99,,,-99.99,,2013-02-14 07:42:00,
2013-02-14 02:52:00,69.0,69.0,29.92,South,187,3.0,4.0,98,-99.99,,,-99.99,,2013-02-14 07:52:00,
2013-02-14 03:01:00,69.0,69.0,29.92,South,187,3.0,4.0,98,-99.99,,,-99.99,,2013-02-14 08:01:00,
2013-02-14 03:11:00,69.0,68.0,29.92,SSW,207,2.0,3.0,98,-99.99,,,-99.99,,2013-02-14 08:11:00,
2013-02-14 03:22:00,69.0,68.0,29.92,SSW,207,2.0,3.0,98,-99.99,,,-99.99,,2013-02-14 08:22:00,
2013-02-14 03:32:00,69.0,68.0,29.92,SSW,207,3.0,3.0,98,-99.99,,,-99.99,,2013-02-14 08:32:00,
2013-02-14 03:43:00,69.0,69.0,29.92,South,185,3.0,4.0,98,-99.99,,,-99.99,,2013-02-14 08:43:00,
2013-02-14 03:52:00,70.0,69.0,29.92,SSW,212,3.0,11.0,98,-99.99,,,-99.99,,2013-02-14 08:52:00,
2013-02-14 04:02:00,70.0,69.0,29.92,SSW,212,3.0,11.0,98,-99.99,,,-99.99,,2013-02-14 09:02:00,
2013-02-14 04:11:00,69.0,69.0,29.92,NW,304,5.0,12.0,98,-99.99,,,-99.99,,2013-02-14 09:11:00,
2013-02-14 04:21:00,69.0,69.0,29.92,NW,304,5.0,12.0,98,-99.99,,,-99.99,,2013-02-14 09:21:00,
2013-02-14 04:32:00,70.0,69.0,29.93,NW,324,7.0,12.0,98,-99.99,,,-99.99,,2013-02-14 09:32:00,
2013-02-14 04:42:00,70.0,69.0,29.93,NW,320,5.0,10.0,98,-99.99,,,-99.99,,2013-02-14 09:42:00,
2013-02-14 04:52:00,70.0,69.0,29.93,NW,322,3.0,5.0,98,-99.99,,,-99.99,,2013-02-14 09:52:00,
2013-02-14 05:02:00,70.0,69.0,29.93,NW,322,3.0,5.0,98,-99.99,,,-99.99,,2013-02-14 10:02:00,
2013-02-14 05:11:00,70.0,69.0,29.93,NNW,330,4.0,6.0,98,-99.99,,,-99.99,,2013-02-14 10:11:00,
2013-02-14 05:21:00,70.0,69.0,29.93,NNW,330,4.0,6.0,98,-99.99,,,-99.99,,2013-02-14 10:21:00,
2013-02-14 05:32:00,69.0,68.0,29.92,West,267,7.0,11.0,98,-99.99,,,-99.99,,2013-02-14 10:32:00,
2013-02-14 05:42:00,67.0,67.0,29.92,South,184,5.0,8.0,98,-99.99,,,-99.99,,2013-02-14 10:42:00,
2013-02-14 05:52:00,68.0,67.0,29.93,SSE,155,6.0,9.0,98,-99.99,,,-99.99,,2013-02-14 10:52:00,
2013-02-14 06:02:00,68.0,67.0,29.93,SSE,155,6.0,9.0,98,-99.99,,,-99.99,,2013-02-14 11:02:00,
2013-02-14 06:11:00,67.0,66.0,29.93,NNE,32,6.0,11.0,98,-99.99,,,-99.99,,2013-02-14 11:11:00,
2013-02-14 06:22:00,67.0,66.0,29.93,NNE,32,6.0,11.0,98,-99.99,,,-99.99,,2013-02-14 11:22:00,
2013-02-14 06:32:00,67.0,66.0,29.93,NNE,32,6.0,11.0,98,-99.99,,,-99.99,,2013-02-14 11:32:00,
2013-02-14 06:42:00,66.0,65.0,29.94,ENE,61,4.0,8.0,97,-99.99,,,-99.99,,2013-02-14 11:42:00,
2013-02-14 06:52:00,66.0,65.0,29.94,NE,37,4.0,6.0,97,-99.99,,,-99.99,,2013-02-14 11:52:00,
2013-02-14 07:02:00,66.0,65.0,29.94,NE,37,4.0,6.0,97,-99.99,,,-99.99,,2013-02-14 12:02:00,
2013-02-14 07:12:00,66.0,65.0,29.94,ENE,62,4.0,5.0,96,-99.99,,,-99.99,,2013-02-14 12:12:00,
2013-02-14 07:22:00,66.0,65.0,29.94,ENE,62,4.0,5.0,96,-99.99,,,-99.99,,2013-02-14 12:22:00,
2013-02-14 07:32:00,66.0,65.0,29.95,NNE,30,4.0,6.0,96,-99.99,,,-99.99,,2013-02-14 12:32:00,
2013-02-14 07:42:00,66.0,65.0,29.95,ESE,112,2.0,4.0,96,-99.99,,,-99.99,,2013-02-14 12:42:00,
2013-02-14 07:53:00,67.0,65.0,29.96,SE,132,3.0,6.0,96,-99.99,,,-99.99,,2013-02-14 12:53:00,
2013-02-14 08:02:00,67.0,65.0,29.96,SE,132,3.0,6.0,96,-99.99,,,-99.99,,2013-02-14 13:02:00,
2013-02-14 08:11:00,67.0,66.0,29.96,NNE,31,3.0,4.0,96,-99.99,,,-99.99,,2013-02-14 13:11:00,
2013-02-14 08:21:00,67.0,66.0,29.96,NNE,31,3.0,4.0,96,-99.99,,,-99.99,,2013-02-14 13:21:00,
2013-02-14 08:32:00,67.0,66.0,29.96,ENE,66,4.0,6.0,95,-99.99,,,-99.99,,2013-02-14 13:32:00,
2013-02-14 08:42:00,68.0,66.0,29.96,ESE,121,5.0,44.0,93,-99.99,,,-99.99,,2013-02-14 13:42:00,
2013-02-14 08:52:00,68.0,66.0,29.97,ENE,59,6.0,8.0,92,-99.99,,,-99.99,,2013-02-14 13:52:00,
2013-02-14 09:01:00,68.0,66.0,29.97,ENE,59,6.0,8.0,92,-99.99,,,-99.99,,2013-02-14 14:01:00,
2013-02-14 09:11:00,68.0,66.0,29.97,ESE,103,5.0,8.0,92,-99.99,,,-99.99,,2013-02-14 14:11:00,
2013-02-14 09:21:00,68.0,66.0,29.97,ESE,103,5.0,8.0,92,-99.99,,,-99.99,,2013-02-14 14:21:00,
2013-02-14 09:32:00,68.0,66.0,29.97,ESE,103,5.0,8.0,92,-99.99,,,-99.99,,2013-02-14 14:32:00,
2013-02-14 09:42:00,67.0,65.0,29.99,NW,305,8.0,16.0,93,-99.99,,,-99.99,,2013-02-14 14:42:00,
2013-02-14 09:52:00,66.0,65.0,29.99,South,176,6.0,11.0,95,-99.99,,,-99.99,,2013-02-14 14:52:00,
2013-02-14 10:02:00,66.0,65.0,29.99,South,176,6.0,11.0,95,-99.99,,,-99.99,,2013-02-14 15:02:00,
2013-02-14 10:11:00,66.0,65.0,29.99,NNE,31,5.0,7.0,96,-99.99,,,-99.99,,2013-02-14 15:11:00,
2013-02-14 10:21:00,66.0,65.0,29.99,NNE,31,5.0,7.0,96,-99.99,,,-99.99,,2013-02-14 15:21:00,
2013-02-14 10:32:00,66.0,65.0,29.99,NNE,31,5.0,7.0,96,-99.99,,,-99.99,,2013-02-14 15:32:00,
2013-02-14 10:42:00,67.0,66.0,29.99,ENE,66,4.0,6.0,96,-99.99,,,-99.99,,2013-02-14 15:42:00,
2013-02-14 10:52:00,67.0,66.0,29.99,ESE,107,4.0,8.0,96,-99.99,,,-99.99,,2013-02-14 15:52:00,
2013-02-14 11:02:00,67.0,66.0,29.99,ESE,107,4.0,8.0,96,-99.99,,,-99.99,,2013-02-14 16:02:00,
2013-02-14 11:11:00,68.0,67.0,29.99,East,87,5.0,8.0,96,-99.99,,,-99.99,,2013-02-14 16:11:00,
2013-02-14 11:22:00,68.0,67.0,29.99,East,87,5.0,8.0,96,-99.99,,,-99.99,,2013-02-14 16:22:00,
2013-02-14 11:32:00,68.0,67.0,29.99,East,87,5.0,8.0,96,-99.99,,,-99.99,,2013-02-14 16:32:00,
2013-02-14 11:42:00,70.0,68.0,29.98,ENE,61,4.0,8.0,96,-99.99,,,-99.99,,2013-02-14 16:42:00,
2013-02-14 11:52:00,71.0,69.0,29.98,NE,53,5.0,8.0,95,-99.99,,,-99.99,,2013-02-14 16:52:00,
2013-02-14 12:01:00,71.0,69.0,29.98,NE,53,5.0,8.0,95,-99.99,,,-99.99,,2013-02-14 17:01:00,
2013-02-14 12:11:00,70.0,68.0,29.98,NE,46,5.0,8.0,94,-99.99,,,-99.99,,2013-02-14 17:11:00,
2013-02-14 12:21:00,70.0,68.0,29.98,NE,46,5.0,8.0,94,-99.99,,,-99.99,,2013-02-14 17:21:00,
2013-02-14 12:32:00,70.0,68.0,29.98,NE,46,5.0,8.0,94,-99.99,,,-99.99,,2013-02-14 17:32:00,
2013-02-14 12:42:00,71.0,69.0,29.96,NE,43,5.0,8.0,92,-99.99,,,-99.99,,2013-02-14 17:42:00,
2013-02-14 12:52:00,72.0,69.0,29.95,ENE,75,5.0,9.0,90,-99.99,,,-99.99,,2013-02-14 17:52:00,
2013-02-14 13:02:00,72.0,69.0,29.95,ENE,75,5.0,9.0,90,-99.99,,,-99.99,,2013-02-14 18:02:00,
2013-02-14 13:11:00,74.0,70.0,29.94,East,93,6.0,10.0,86,-99.99,,,-99.99,,2013-02-14 18:11:00,
2013-02-14 13:23:00,74.0,70.0,29.94,East,93,6.0,10.0,86,-99.99,,,-99.99,,2013-02-14 18:23:00,
2013-02-14 13:32:00,75.0,70.0,29.93,East,91,6.0,10.0,83,-99.99,,,-99.99,,2013-02-14 18:32:00,
2013-02-14 13:42:00,75.0,70.0,29.93,East,89,6.0,9.0,83,-99.99,,,-99.99,,2013-02-14 18:42:00,
2013-02-14 13:52:00,77.0,71.0,29.91,ESE,106,6.0,9.0,80,-99.99,,,-99.99,,2013-02-14 18:52:00,
2013-02-14 14:02:00,77.0,71.0,29.91,ESE,106,6.0,9.0,80,-99.99,,,-99.99,,2013-02-14 19:02:00,
2013-02-14 14:11:00,78.0,71.0,29.90,SE,124,5.0,8.0,77,-99.99,,,-99.99,,2013-02-14 19:11:00,
2013-02-14 14:22:00,78.0,71.0,29.90,SE,124,5.0,8.0,77,-99.99,,,-99.99,,2013-02-14 19:22:00,
2013-02-14 14:32:00,79.0,71.0,29.89,SE,124,4.0,8.0,75,-99.99,,,-99.99,,2013-02-14 19:32:00,
2013-02-14 14:42:00,79.0,71.0,29.88,ESE,112,5.0,9.0,75,-99.99,,,-99.99,,2013-02-14 19:42:00,
2013-02-14 14:52:00,78.0,71.0,29.87,East,94,6.0,11.0,77,-99.99,,,-99.99,,2013-02-14 19:52:00,
2013-02-14 15:01:00,78.0,71.0,29.87,East,94,6.0,11.0,77,-99.99,,,-99.99,,2013-02-14 20:01:00,
2013-02-14 15:11:00,78.0,71.0,29.87,ESE,105,8.0,14.0,79,-99.99,,,-99.99,,2013-02-14 20:11:00,
2013-02-14 15:21:00,78.0,71.0,29.87,ESE,105,8.0,14.0,79,-99.99,,,-99.99,,2013-02-14 20:21:00,
2013-02-14 15:32:00,78.0,71.0,29.87,ESE,105,8.0,14.0,79,-99.99,,,-99.99,,2013-02-14 20:32:00,
2013-02-14 15:42:00,77.0,71.0,29.88,ESE,102,9.0,15.0,80,-99.99,,,-99.99,,2013-02-14 20:42:00,
2013-02-14 15:52:00,75.0,70.0,29.86,East,94,11.0,16.0,85,-99.99,,,-99.99,,2013-02-14 20:52:00,
2013-02-14 16:02:00,75.0,70.0,29.86,East,94,11.0,16.0,85,-99.99,,,-99.99,,2013-02-14 21:02:00,
2013-02-14 16:11:00,74.0,70.0,29.84,East,82,11.0,20.0,87,-99.99,,,-99.99,,2013-02-14 21:11:00,
2013-02-14 16:22:00,74.0,70.0,29.84,East,82,11.0,20.0,87,-99.99,,,-99.99,,2013-02-14 21:22:00,
2013-02-14 16:32:00,73.0,70.0,29.85,NE,51,16.0,33.0,91,-99.99,,,-99.99,,2013-02-14 21:32:00,
2013-02-14 16:42:00,70.0,69.0,29.87,East,83,18.0,40.0,96,-99.99,,,-99.99,,2013-02-14 21:42:00,
2013-02-14 16:51:00,70.0,69.0,29.88,SE,128,8.0,13.0,98,-99.99,,,-99.99,,2013-02-14 21:51:00,
2013-02-14 17:02:00,70.0,69.0,29.88,SE,128,8.0,13.0,98,-99.99,,,-99.99,,2013-02-14 22:02:00,
2013-02-14 17:11:00,70.0,70.0,29.88,NNE,23,9.0,14.0,98,-99.99,,,-99.99,,2013-02-14 22:11:00,
2013-02-14 17:21:00,70.0,70.0,29.88,NNE,23,9.0,14.0,98,-99.99,,,-99.99,,2013-02-14 22:21:00,
2013-02-14 17:32:00,70.0,69.0,29.87,NNE,24,9.0,14.0,98,-99.99,,,-99.99,,2013-02-14 22:32:00,
2013-02-14 17:42:00,70.0,69.0,29.89,SW,221,6.0,14.0,98,-99.99,,,-99.99,,2013-02-14 22:42:00,
2013-02-14 17:52:00,69.0,68.0,29.89,South,182,9.0,14.0,98,-99.99,,,-99.99,,2013-02-14 22:52:00,
2013-02-14 18:01:00,69.0,68.0,29.89,South,182,9.0,14.0,98,-99.99,,,-99.99,,2013-02-14 23:01:00,
2013-02-14 18:11:00,68.0,68.0,29.89,WSW,240,10.0,14.0,98,-99.99,,,-99.99,,2013-02-14 23:11:00,
2013-02-14 18:21:00,68.0,68.0,29.89,WSW,240,10.0,14.0,98,-99.99,,,-99.99,,2013-02-14 23:21:00,
2013-02-14 18:32:00,68.0,68.0,29.89,WSW,240,10.0,14.0,98,-99.99,,,-99.99,,2013-02-14 23:32:00,
2013-02-14 18:42:00,68.0,68.0,29.93,WSW,246,11.0,28.0,98,-99.99,,,-99.99,,2013-02-14 23:42:00,
2013-02-14 18:52:00,66.0,65.0,29.96,NNW,333,22.0,35.0,98,-99.99,,,-99.99,,2013-02-14 23:52:00,
2013-02-14 19:01:00,66.0,65.0,29.96,NNW,333,22.0,35.0,98,-99.99,,,-99.99,,2013-02-15 00:01:00,
2013-02-14 19:11:00,64.0,63.0,29.95,NW,313,18.0,29.0,98,-99.99,,,-99.99,,2013-02-15 00:11:00,
2013-02-14 19:22:00,64.0,63.0,29.95,NW,313,18.0,29.0,98,-99.99,,,-99.99,,2013-02-15 00:22:00,
2013-02-14 19:32:00,63.0,63.0,29.94,SE,137,19.0,27.0,97,-99.99,,,-99.99,,2013-02-15 00:32:00,
2013-02-14 19:42:00,63.0,62.0,29.94,ESE,122,18.0,30.0,97,-99.99,,,-99.99,,2013-02-15 00:42:00,
2013-02-14 19:52:00,63.0,62.0,29.95,South,174,15.0,24.0,97,-99.99,,,-99.99,,2013-02-15 00:52:00,
2013-02-14 20:02:00,63.0,62.0,29.95,South,174,15.0,24.0,97,-99.99,,,-99.99,,2013-02-15 01:02:00,
2013-02-14 20:11:00,63.0,62.0,29.95,SE,135,15.0,23.0,97,-99.99,,,-99.99,,2013-02-15 01:11:00,
2013-02-14 20:21:00,63.0,62.0,29.95,SE,135,15.0,23.0,97,-99.99,,,-99.99,,2013-02-15 01:21:00,
2013-02-14 20:32:00,63.0,62.0,29.96,SSE,152,14.0,22.0,96,-99.99,,,-99.99,,2013-02-15 01:32:00,
2013-02-14 20:42:00,63.0,62.0,29.96,SSE,152,14.0,22.0,96,-99.99,,,-99.99,,2013-02-15 01:42:00,
2013-02-14 20:52:00,63.0,62.0,29.96,SE,134,11.0,17.0,96,-99.99,,,-99.99,,2013-02-15 01:52:00,
2013-02-14 21:01:00,63.0,62.0,29.96,SE,134,11.0,17.0,96,-99.99,,,-99.99,,2013-02-15 02:01:00,
2013-02-14 21:11:00,63.0,62.0,29.97,South,183,12.0,19.0,96,-99.99,,,-99.99,,2013-02-15 02:11:00,
2013-02-14 21:21:00,63.0,62.0,29.97,South,183,12.0,19.0,96,-99.99,,,-99.99,,2013-02-15 02:21:00,
2013-02-14 21:32:00,63.0,62.0,29.97,South,183,12.0,19.0,96,-99.99,,,-99.99,,2013-02-15 02:32:00,
2013-02-14 21:42:00,63.0,62.0,29.98,SW,227,11.0,19.0,96,-99.99,,,-99.99,,2013-02-15 02:42:00,
2013-02-14 21:52:00,63.0,61.0,29.99,WSW,255,12.0,18.0,96,-99.99,,,-99.99,,2013-02-15 02:52:00,
2013-02-14 22:02:00,63.0,61.0,29.99,WSW,255,12.0,18.0,96,-99.99,,,-99.99,,2013-02-15 03:02:00,
2013-02-14 22:11:00,62.0,61.0,30.00,SE,142,11.0,17.0,96,-99.99,,,-99.99,,2013-02-15 03:11:00,
2013-02-14 22:22:00,62.0,61.0,30.00,SE,142,11.0,17.0,96,-99.99,,,-99.99,,2013-02-15 03:22:00,
2013-02-14 22:32:00,62.0,61.0,30.00,South,181,9.0,16.0,97,-99.99,,,-99.99,,2013-02-15 03:32:00,
2013-02-14 22:42:00,62.0,61.0,30.00,SSW,211,9.0,14.0,97,-99.99,,,-99.99,,2013-02-15 03:42:00,
2013-02-14 22:52:00,62.0,61.0,30.00,West,263,10.0,14.0,97,-99.99,,,-99.99,,2013-02-15 03:52:00,
2013-02-14 23:02:00,62.0,61.0,30.00,West,263,10.0,14.0,97,-99.99,,,-99.99,,2013-02-15 04:02:00,
2013-02-14 23:11:00,62.0,61.0,29.99,SSE,147,10.0,14.0,97,-99.99,,,-99.99,,2013-02-15 04:11:00,
2013-02-14 23:21:00,62.0,61.0,29.99,SSE,147,10.0,14.0,97,-99.99,,,-99.99,,2013-02-15 04:21:00,
2013-02-14 23:32:00,62.0,61.0,30.00,WSW,243,9.0,14.0,98,-99.99,,,-99.99,,2013-02-15 04:32:00,
2013-02-14 23:42:00,62.0,61.0,29.99,ENE,62,10.0,16.0,98,-99.99,,,-99.99,,2013-02-15 04:42:00,
2013-02-14 23:52:00,62.0,61.0,29.99,NE,56,9.0,15.0,98,-99.99,,,-99.99,,2013-02-15 04:52:00,